Overview Statistics Trail Chart Weather Telemetry Raw packets
 

This is the latest recevied weather packets stored in our database for station/object K8RRT. If no packets are shown the sender has not sent any weather packets the latest 10 day(s).

<< 13 14 15 16 17 18 19 >>
Time Temp. Humidity Pressure Rain* Wind** Luminosity Snow
1788523992 23.89° C 99% 1012.6 hPa 0 mm - 67 W/m² -
1788523689 23.33° C 99% 1012.6 hPa 0 mm - 59 W/m² -
1788523384 23.33° C 99% 1012.5 hPa 0 mm - 52 W/m² -
1788523079 23.33° C 99% 1012.7 hPa 0 mm - 48 W/m² -
1788522774 23.33° C 99% 1012.5 hPa 0 mm - 46 W/m² -
1788522469 23.33° C 99% 1012.2 hPa 0 mm - 41 W/m² -
1788522169 22.78° C 99% 1012.5 hPa 0 mm - 31 W/m² -
1788521864 22.78° C 99% 1012.4 hPa 0 mm - 32 W/m² -
1788521563 22.78° C 99% 1012.4 hPa 0 mm - 27 W/m² -
1788521258 22.78° C 99% 1012.3 hPa 0 mm - 23 W/m² -
1788520953 22.22° C 99% 1012.3 hPa 0 mm - 18 W/m² -
1788520649 22.22° C 99% 1012.2 hPa 0 mm - 12 W/m² -
1788520345 22.22° C 99% 1012.4 hPa 0 mm - 10 W/m² -
1788520040 22.22° C 99% 1012.2 hPa 0 mm - 5 W/m² -
1788519739 22.22° C 99% 1012 hPa 0 mm - 2 W/m² -
1788519434 22.78° C 99% 1012.1 hPa 0 mm - 1 W/m² -
1788519129 22.78° C 99% 1012 hPa 0 mm - 0 W/m² -
1788518824 22.78° C 99% 1012.2 hPa 0 mm - 0 W/m² -
1788518520 22.22° C 99% 1012 hPa 0 mm - 0 W/m² -
1788518217 22.22° C 99% 1012.2 hPa 0 mm - 0 W/m² -
1788517911 22.22° C 99% 1011.8 hPa 0 mm - 0 W/m² -
1788517607 22.22° C 99% 1011.9 hPa 0 mm - 0 W/m² -
1788517302 22.22° C 99% 1012 hPa 0 mm - 0 W/m² -
1788516999 22.22° C 99% 1011.8 hPa 0 mm - 0 W/m² -
1788516694 22.78° C 99% 1011.7 hPa 0 mm - 0 W/m² -

* Rain latest hour (hover to see other rain measurements)
** Current wind speed in m/s (hover to see current wind gust speed)